User: anonymous   Login
Location: Peebles
(55.6412°N, 3.1714°W)
Time: 18:17:50
(UTC+00:00)
Language:

FENGYUN 1C DEB - Orbit

View from above orbital plane
View from above orbital plane
View from above satellite
View from above satellite

Ground track
Ground track

The orbit data is extracted from the following two-line orbital elements,

1 31027U 99025BDV 22236.14106902  .00001907  00000-0  86465-3 0  9995
2 31027  99.0019 351.2614 0075883 237.6354 121.7462 14.21631312 44461
Epoch (UTC): 24 August 2022 03:23:08
Eccentricity: 0.0075883
inclination: 99.0019°
perigee height: 765 km
apogee height: 874 km
right ascension of ascending node: 351.2614°
argument of perigee: 237.6354°
revolutions per day: 14.21631312
mean anomaly at epoch: 121.7462°
orbit number at epoch: 4446

The dashed part of the orbit path shows where the satellite is in the earth's shadow,  

DLR